Tiempo atmosférico en la estación meteorológica de Vega de San Mateo, Las Palmas (1702 m.)



Fecha
DESCASC
Temp. máxima en grados centígrados (hora)
DESCASC
Temp. mínima en grados centígrados (hora)
DESCASC
Temp. media en grados centígrados
DESCASC
Racha de viento máxima en m/sg (hora)
DESCASC
Velocidad máxima media en intervalos de 10 minutos(hora)
DESCASC
Precipitaciones diarias en mm
DESCASC
Precipitaciones de 00:00 a 06:00 en mm
DESCASC
Precipitaciones de 06:00 a 12:00 en mm
DESCASC
Precipitaciones de 12:00 a 18:00 en mm
DESCASC
Precipitaciones de 18:00 a 24:00 en mm
DESCASC
05-04-2020 17.2 (15:40) 7.5 (06:30) 12.4 7.5 (17:20) 5 (17:00) 0 0 0 0 0
04-04-2020 14.3 (14:30) 7.4 (01:20) 10.9 11.67 (06:00) 5.83 (03:50) 0 0 0 0 0
03-04-2020 15.1 (11:20) 8 (23:50) 11.6 12.22 (20:40) 7.22 (16:50) 0 0 0 0 0
02-04-2020 15.1 (11:30) 5.5 (00:00) 10.3 5.28 (14:40) 3.33 (14:40) 0 0 0 0 0
01-04-2020 15.2 (10:30) 6.5 (00:00) 10.8 6.39 (14:00) 3.89 (14:20) 0 0 0 0 0
31-03-2020 13.8 (14:00) 6.7 (00:00) 10.3 10.28 (02:00) 6.11 (07:20) 0 0 0 0 0
30-03-2020 14.3 (13:30) 5.3 (00:00) 9.8 9.44 (16:10) 5.56 (16:10) 0 0 0 0 0
29-03-2020 12.3 (18:50) 0.5 (00:00) 6.4 6.11 (14:30) 3.61 (14:20) 0.2 0.2 0 0 0
28-03-2020 10.6 (12:40) 1.1 (00:00) 5.9 6.67 (01:10) 4.17 (01:00) 1.2 1.2 0 0 0
27-03-2020 10.3 (14:30) 2 (00:00) 6.2 7.78 (16:00) 4.44 (17:50) 2.4 0.4 0.2 0 1.8
26-03-2020 8.1 (11:40) 1.5 (00:00) 4.8 8.61 (22:00) 3.89 (22:10) 0.6 0.2 0 0.4 0
25-03-2020 8.8 (13:00) 2 (00:00) 5.4 6.11 (00:30) 3.33 (13:20) 0 0 0 0 0
24-03-2020 8.5 (15:30) 3.2 (00:00) 5.9 11.39 (01:10) 5.28 (03:10) 4 1 2.8 0 0.2
23-03-2020 4.2 (14:10) 1.3 (00:00) 2.7 22.22 (04:30) 13.89 (04:30) 41.4 7.4 25.6 6.2 2.2
22-03-2020 9.9 (14:40) 1.7 (01:20) 5.8 16.67 (23:30) 9.44 (23:59) 4.8 0.2 0.8 0 3.8
21-03-2020 9.2 (15:20) 1.8 (00:00) 5.5 10.28 (07:10) 5.28 (03:30) 1.4 0.2 0.6 0 0.6
20-03-2020 9.6 (15:10) 4.3 (00:00) 7 8.61 (23:40) 4.44 (23:59) 3.8 0.6 0.4 0 2.8
19-03-2020 7.2 (14:00) 2.8 (00:00) 5 13.61 (06:30) 6.11 (10:50) 7.2 0.6 5.8 0 0.8
18-03-2020 5.1 (14:40) 2.1 (00:00) 3.6 12.78 (19:50) 5.28 (19:50) 5.8 3.8 1.4 0 0.6
17-03-2020 6.1 (15:40) 2 (00:00) 4 12.22 (07:00) 7.22 (08:10) 6.6 2 2.4 0.4 1.8
16-03-2020 5.5 (15:10) 3.2 (00:00) 4.4 16.11 (13:30) 7.78 (12:30) 5.6 1.2 1.2 0 3.2
15-03-2020 6.6 (15:30) 3 (00:00) 4.8 11.67 (22:50) 5.56 (20:50) 5.4 0.6 1.2 1.2 2.4
14-03-2020 15.5 (10:10) 3.4 (00:00) 9.5 8.33 (14:50) 5.56 (14:50) 0 0 0 0 0
13-03-2020 18.1 (11:40) 8.3 (23:40) 13.2 6.39 (15:50) 4.17 (15:50) 0 0 0 0 0
12-03-2020 18.8 (14:20) 9.5 (00:00) 14.1 8.06 (13:40) 4.72 (12:40) 0 0 0 0 0
11-03-2020 18.7 (14:10) 10.8 (00:00) 14.8 10 (10:30) 5.28 (10:30) 0 0 0 0 0
10-03-2020 20.2 (12:50) 10 (00:00) 15.1 9.44 (00:20) 6.67 (00:10) 0 0 0 0 0
09-03-2020 16.6 (13:10) 9.7 (00:00) 13.2 12.5 (11:20) 7.5 (11:30) 0 0 0 0 0
08-03-2020 18.2 (15:00) 11.9 (00:00) 15.1 15 (10:50) 8.06 (10:30) 0 0 0 0 0

Gráficas

Temp. máximas Temp. mínimas Temp. medias Precipitaciones Rachas de viento máximas Velocidades máximas media en intervalos de 10 minutos

Datos horarios

Fecha y hora oficial Temperatura (ºC) Velocidad del viento (km/h) Dirección del viento Racha (km/h) Dirección de racha Precipitación (mm) Presión (hPa) Tendencia (hPa) Humedad (%)
2020-04-06 23:00:00 12.2 4 Norte 12 Norte 0 -- -- 24
2020-04-06 22:00:00 11.9 2 Nordeste 9 Nordeste 0 -- -- 24
2020-04-06 21:00:00 10.7 0 Calma 8 Este 0 -- -- 31
2020-04-06 20:00:00 16.3 3 Norte 15 Noroeste 0 -- -- 42
2020-04-06 19:00:00 17.6 6 Norte 17 Oeste 0 -- -- 42
2020-04-06 18:00:00 17.3 8 Oeste 17 Sudoeste 0 -- -- 60
2020-04-06 17:00:00 16.7 10 Oeste 21 Oeste 0 -- -- 65
2020-04-06 16:00:00 16.3 5 Norte 21 Oeste 0 -- -- 69
2020-04-06 15:00:00 17.6 11 Oeste 30 Oeste 0 -- -- 49
2020-04-06 14:00:00 18 10 Oeste 18 Oeste 0 -- -- 41
2020-04-06 13:00:00 17.4 8 Oeste 16 Oeste 0 -- -- 39
2020-04-06 12:00:00 16.5 8 Oeste 14 Oeste 0 -- -- 39
2020-04-06 11:00:00 15.7 7 Oeste -- -- -- -- -- 42
2020-04-06 10:00:00 16.6 3 Noroeste 12 Nordeste 0 -- -- 37
2020-04-06 09:00:00 12.1 3 Noroeste 11 Noroeste 0 -- -- 53
2020-04-06 08:00:00 9.9 5 Norte 13 Noroeste 0 -- -- 50
2020-04-06 07:00:00 9.2 2 Nordeste 12 Nordeste 0 -- -- 63
2020-04-06 06:00:00 8 2 Sudoeste 9 Noroeste 0 -- -- 73
2020-04-06 05:00:00 8.9 4 Sudoeste 13 Noroeste 0 -- -- 68
2020-04-06 04:00:00 9.9 5 Oeste 15 Oeste 0 -- -- 65
2020-04-06 03:00:00 9.7 3 Noroeste 11 Nordeste 0 -- -- 69
2020-04-06 02:00:00 9.9 3 Este 10 Sudeste 0 -- -- 70
2020-04-06 01:00:00 10.3 4 Sudeste 15 Oeste 0 -- -- 68
2020-04-06 00:00:00 10.4 3 Sudoeste 14 Oeste 0 -- -- 67
2020-04-05 23:00:00 10.5 6 Noroeste 18 Noroeste 0 -- -- 68
2020-04-05 22:00:00 11.3 4 Noroeste 16 Norte 0 -- -- 64
2020-04-05 21:00:00 11.2 5 Oeste 24 Oeste 0 -- -- 71
2020-04-05 20:00:00 13.6 10 Noroeste 22 Oeste 0 -- -- 66
2020-04-05 19:00:00 15.2 12 Oeste 22 Oeste 0 -- -- 70
2020-04-05 18:00:00 16 12 Oeste 27 Oeste 0 -- -- 70
2020-04-05 17:00:00 16.3 18 Oeste 27 Oeste 0 -- -- 64
2020-04-05 16:00:00 16 7 Norte 25 Oeste 0 -- -- 74
2020-04-05 15:00:00 16.5 13 Oeste 24 Oeste 0 -- -- 60
2020-04-05 14:00:00 16.8 7 Noroeste 23 Oeste 0 -- -- 63
2020-04-05 13:00:00 16.5 9 Oeste 21 Oeste 0 -- -- 56
2020-04-05 12:00:00 15.2 10 Oeste 21 Norte 0 -- -- 57
2020-04-05 11:00:00 15.4 4 Oeste 19 Norte 0 -- -- 54
2020-04-05 10:00:00 13.6 5 Noroeste 13 Oeste 0 -- -- 54
2020-04-05 09:00:00 12.3 4 Noroeste 26 Oeste 0 -- -- 54
2020-04-05 08:00:00 10.6 6 Oeste 22 Oeste 0 -- -- 57
2020-04-05 07:00:00 9.7 5 Norte 15 Norte 0 -- -- 69
2020-04-05 06:00:00 8.7 3 Sudeste 9 Oeste 0 -- -- 52
2020-04-05 05:00:00 9.8 2 Nordeste 9 Noroeste 0 -- -- 42
2020-04-05 04:00:00 8.4 0 Calma 9 Sur 0 -- -- 55
2020-04-05 03:00:00 8.3 4 Sudoeste 13 Sudoeste 0 -- -- 38
2020-04-05 02:00:00 9.9 8 Sudoeste 17 Sudoeste 0 -- -- 32
2020-04-05 01:00:00 9 8 Sudoeste 17 Oeste 0 -- -- 51
2020-04-05 00:00:00 9.5 9 Sudoeste 16 Sudoeste 0 -- -- 33
2020-04-04 23:00:00 9.6 11 Sudoeste 18 Sudoeste 0 -- -- 47
2020-04-04 22:00:00 8.6 6 Sur 16 Sudoeste 0 -- -- 51
2020-04-04 21:00:00 8.4 7 Sudoeste 17 Oeste 0 -- -- 96
2020-04-04 20:00:00 9.8 15 Oeste 28 Oeste 0 -- -- 92
2020-04-04 19:00:00 11.7 14 Oeste 24 Oeste 0 -- -- 76
2020-04-04 18:00:00 13.5 17 Oeste 28 Oeste 0 -- -- 69
2020-04-04 17:00:00 13.8 19 Oeste 31 Oeste 0 -- -- 62
2020-04-04 16:00:00 14.1 19 Oeste 32 Oeste 0 -- -- 57
2020-04-04 15:00:00 14.1 17 Oeste 32 Oeste 0 -- -- 53
2020-04-04 14:00:00 14 13 Oeste 31 Oeste 0 -- -- 65
2020-04-04 13:00:00 13.9 11 Sudoeste 24 Sudoeste 0 -- -- 53
2020-04-04 12:00:00 13.4 12 Sudoeste 21 Sudoeste 0 -- -- 58
2020-04-04 11:00:00 12 8 Noroeste 18 Sudoeste 0 -- -- 71
2020-04-04 10:00:00 12.2 8 Oeste 17 Oeste 0 -- -- 58
2020-04-04 09:00:00 9.3 9 Oeste 28 Oeste 0 -- -- 68
2020-04-04 08:00:00 8.1 10 Oeste 40 Oeste 0 -- -- 72
2020-04-04 07:00:00 8.4 17 Oeste 37 Oeste 0 -- -- 70
2020-04-04 06:00:00 8.4 19 Oeste 42 Oeste 0 -- -- 73
2020-04-04 05:00:00 8.2 17 Oeste 32 Oeste 0 -- -- 78
2020-04-04 04:00:00 8.1 18 Oeste 35 Oeste 0 -- -- 84
2020-04-04 03:00:00 7.5 19 Oeste 33 Oeste 0 -- -- 94
2020-04-04 02:00:00 7.8 19 Sudoeste 33 Sudoeste 0 -- -- 97
2020-04-04 01:00:00 7.5 18 Oeste 35 Sudoeste 0 -- -- 97
2020-04-04 00:00:00 8 16 Oeste 36 Sudoeste 0 -- -- 99
2020-04-03 23:00:00 8.4 17 Oeste 36 Oeste 0 -- -- 99
2020-04-03 22:00:00 9.2 15 Oeste 35 Oeste 0 -- -- 99
2020-04-03 21:00:00 9.1 24 Oeste 44 Sudoeste 0 -- -- 98
2020-04-03 20:00:00 9.3 16 Oeste 30 Oeste 0 -- -- 96
2020-04-03 19:00:00 9.9 14 Oeste 29 Oeste 0 -- -- 95
2020-04-03 18:00:00 11.5 17 Oeste 31 Oeste 0 -- -- 85
2020-04-03 17:00:00 12.8 22 Oeste 41 Oeste 0 -- -- 78
2020-04-03 16:00:00 14.2 21 Oeste 37 Noroeste 0 -- -- 59
2020-04-03 15:00:00 13.8 19 Oeste 31 Noroeste 0 -- -- 55
2020-04-03 14:00:00 13.7 15 Oeste 25 Oeste 0 -- -- 63
2020-04-03 13:00:00 14.3 8 Oeste 25 Noroeste 0 -- -- 55
2020-04-03 12:00:00 14.3 13 Sudoeste 23 Sudoeste 0 -- -- 37
2020-04-03 11:00:00 14.6 9 Sudoeste 15 Oeste 0 -- -- 26
2020-04-03 10:00:00 10.7 5 Sudoeste 16 Oeste 0 -- -- 39
2020-04-03 09:00:00 10.5 5 Sudoeste 16 Sur 0 -- -- 34
2020-04-03 08:00:00 9.2 7 Sur 14 Sur 0 -- -- 32
2020-04-03 07:00:00 8.7 6 Sur 15 Sur 0 -- -- 38
2020-04-03 06:00:00 9.3 6 Sudoeste 12 Sudoeste 0 -- -- 28
2020-04-03 05:00:00 9.5 6 Sudoeste 14 Sur 0 -- -- 29
2020-04-03 04:00:00 10 6 Sur 15 Sur 0 -- -- 28
2020-04-03 03:00:00 8.5 3 Oeste 7 Sudoeste 0 -- -- 29
2020-04-03 02:00:00 9.2 0 Calma 8 Sudeste 0 -- -- 26
2020-04-03 01:00:00 8.8 2 Sur 4 Sur 0 -- -- 31
2020-04-03 00:00:00 8.8 0 Calma 6 Este 0 -- -- 35
2020-04-02 23:00:00 8.8 0 Calma 6 Nordeste 0 -- -- 47
2020-04-02 22:00:00 9.3 4 Este 7 Nordeste 0 -- -- 45
2020-04-02 21:00:00 9.1 0 Calma 8 Nordeste 0 -- -- 76
2020-04-02 20:00:00 13.1 2 Nordeste 12 Este 0 -- -- 68
2020-04-02 19:00:00 13.6 0 Calma 12 Oeste 0 -- -- 81
2020-04-02 18:00:00 13.3 7 Oeste 15 Oeste 0 -- -- 83
2020-04-02 17:00:00 13.1 9 Oeste 17 Oeste 0 -- -- 82
2020-04-02 16:00:00 13.9 11 Oeste 18 Oeste 0 -- -- 77
2020-04-02 15:00:00 14.1 9 Oeste 19 Oeste 0 -- -- 71
2020-04-02 14:00:00 14.8 10 Oeste 18 Noroeste 0 -- -- 56
2020-04-02 13:00:00 14.3 8 Oeste 16 Oeste 0 -- -- 56
2020-04-02 12:00:00 14.4 9 Oeste 13 Oeste 0 -- -- 50
2020-04-02 11:00:00 14.8 5 Oeste 12 Oeste 0 -- -- 32
2020-04-02 10:00:00 13.2 6 Este 12 Nordeste 0 -- -- 40
2020-04-02 09:00:00 8.7 3 Nordeste 7 Nordeste 0 -- -- 44
2020-04-02 08:00:00 5.6 0 Calma 5 Nordeste 0 -- -- 52
2020-04-02 07:00:00 6.8 4 Norte 9 Nordeste 0 -- -- 45
2020-04-02 06:00:00 7.2 0 Calma 5 Norte 0 -- -- 42
2020-04-02 05:00:00 6.1 0 Calma 6 Nordeste 0 -- -- 48
2020-04-02 04:00:00 6.7 2 Norte 5 Nordeste 0 -- -- 42
2020-04-02 03:00:00 6.6 0 Calma 3 Nordeste 0 -- -- 42
2020-04-02 02:00:00 6.6 0 Calma 6 Nordeste 0 -- -- 47
2020-04-02 01:00:00 6.6 2 Nordeste 8 Nordeste 0 -- -- 49
2020-04-02 00:00:00 7.6 3 Este 9 Nordeste 0 -- -- 44
2020-04-01 23:00:00 7.8 5 Este 12 Nordeste 0 -- -- 40
2020-04-01 22:00:00 7.1 5 Nordeste 12 Nordeste 0 -- -- 50
2020-04-01 21:00:00 7.7 3 Nordeste 10 Este 0 -- -- 62
2020-04-01 20:00:00 12.8 4 Nordeste 11 Oeste 0 -- -- 63
2020-04-01 19:00:00 13.5 8 Oeste 13 Sudoeste 0 -- -- 76
2020-04-01 18:00:00 13.9 9 Oeste 17 Oeste 0 -- -- 74
2020-04-01 17:00:00 13 8 Oeste 21 Oeste 0 -- -- 79
2020-04-01 16:00:00 13.6 12 Oeste 22 Oeste 0 -- -- 79
2020-04-01 15:00:00 13.6 10 Oeste 22 Oeste 0 -- -- 73
2020-04-01 14:00:00 14.2 13 Oeste 23 Oeste 0 -- -- 67
2020-04-01 13:00:00 14.7 8 Noroeste 14 Oeste 0 -- -- 45
2020-04-01 12:00:00 14.7 8 Oeste 17 Oeste 0 -- -- 34
2020-04-01 11:00:00 14.6 7 Oeste 13 Oeste 0 -- -- 35
2020-04-01 10:00:00 14.8 3 Sudoeste 13 Sudoeste 0 -- -- 30
2020-04-01 09:00:00 10.7 6 Sudoeste 12 Sur 0 -- -- 35
2020-04-01 08:00:00 8.6 6 Sudoeste 15 Sudoeste 0 -- -- 39
2020-04-01 07:00:00 9.5 8 Sudoeste 13 Sudoeste 0 -- -- 35
2020-04-01 06:00:00 9.1 4 Sudoeste 12 Sudoeste 0 -- -- 40
2020-04-01 05:00:00 8.6 4 Sudoeste 7 Sudoeste 0 -- -- 41
2020-04-01 04:00:00 7.3 2 Sudeste 5 Sudoeste 0 -- -- 45
2020-04-01 03:00:00 7.1 2 Sudeste 4 Noroeste 0 -- -- 50
2020-04-01 02:00:00 7.3 2 Este 4 Este 0 -- -- 57
2020-04-01 01:00:00 6.8 3 Este 5 Sudoeste 0 -- -- 60
2020-04-01 00:00:00 7.5 2 Sur 8 Nordeste 0 -- -- 55
2020-03-31 23:00:00 8.6 3 Nordeste 13 Sudoeste 0 -- -- 57
2020-03-31 22:00:00 8.6 10 Oeste 23 Oeste 0 -- -- 58
2020-03-31 21:00:00 7.7 7 Sudoeste 15 Oeste 0 -- -- 97
2020-03-31 20:00:00 9.1 7 Oeste 19 Oeste 0 -- -- 96
2020-03-31 19:00:00 11.1 15 Oeste 27 Oeste 0 -- -- 85
2020-03-31 18:00:00 12 18 Oeste 31 Oeste 0 -- -- 85
2020-03-31 17:00:00 13 21 Oeste 32 Oeste 0 -- -- 79
2020-03-31 16:00:00 13.3 18 Oeste 35 Oeste 0 -- -- 80
2020-03-31 15:00:00 13.6 18 Oeste 29 Oeste 0 -- -- 78
2020-03-31 14:00:00 13.8 13 Oeste 26 Oeste 0 -- -- 74
2020-03-31 13:00:00 13.6 13 Oeste 24 Oeste 0 -- -- 66
2020-03-31 12:00:00 13.2 11 Oeste 29 Oeste 0 -- -- 57
2020-03-31 11:00:00 13 18 Oeste 28 Oeste 0 -- -- 44
2020-03-31 10:00:00 12.1 15 Oeste 27 Oeste 0 -- -- 45
2020-03-31 09:00:00 10 15 Oeste 33 Oeste 0 -- -- 50
2020-03-31 08:00:00 9 20 Oeste 37 Oeste 0 -- -- 52
2020-03-31 07:00:00 8.6 15 Oeste 30 Oeste 0 -- -- 52
2020-03-31 06:00:00 8.8 12 Sudoeste 24 Sudoeste 0 -- -- 50
2020-03-31 05:00:00 8.3 7 Sudoeste 19 Oeste 0 -- -- 55
2020-03-31 04:00:00 8.6 9 Sudoeste 27 Sudoeste 0 -- -- 56
2020-03-31 03:00:00 9.9 13 Sudoeste 29 Oeste 0 -- -- 50
2020-03-31 02:00:00 10.3 16 Oeste 37 Oeste 0 -- -- 49
2020-03-31 01:00:00 10.5 16 Oeste 32 Oeste 0 -- -- 48
2020-03-31 00:00:00 10.4 16 Oeste 31 Oeste 0 -- -- 49
2020-03-30 23:00:00 8.9 10 Sudoeste 20 Sudoeste 0 -- -- 58
2020-03-30 22:00:00 8.4 11 Sudoeste 25 Oeste 0 -- -- 62
2020-03-30 21:00:00 8 10 Sudoeste 21 Sudoeste 0 -- -- 70
2020-03-30 20:00:00 10.6 10 Oeste 21 Oeste 0 -- -- 74
2020-03-30 19:00:00 12.4 14 Oeste 24 Oeste 0 -- -- 73
2020-03-30 18:00:00 12.9 15 Oeste 24 Oeste 0 -- -- 72
2020-03-30 17:00:00 13.4 15 Oeste 34 Oeste 0 -- -- 68
2020-03-30 16:00:00 13.5 18 Oeste 29 Oeste 0 -- -- 71
2020-03-30 15:00:00 14.1 19 Oeste 31 Sudoeste 0 -- -- 64
2020-03-30 14:00:00 14 16 Oeste 29 Noroeste 0 -- -- 62
2020-03-30 13:00:00 13.4 14 Oeste 25 Oeste 0 -- -- 60
2020-03-30 12:00:00 13.1 13 Oeste 21 Oeste 0 -- -- 55
2020-03-30 11:00:00 12.8 11 Oeste 19 Sudoeste 0 -- -- 53
2020-03-30 10:00:00 12 9 Sudoeste 17 Sudoeste 0 -- -- 51
2020-03-30 09:00:00 9.3 6 Sur 12 Sur 0 -- -- 60
2020-03-30 08:00:00 7.1 5 Sudoeste 9 Sudoeste 0 -- -- 66
2020-03-30 07:00:00 7.4 6 Sudoeste 9 Sudoeste 0 -- -- 65
2020-03-30 06:00:00 5.7 2 Oeste 5 Sudoeste 0 -- -- 72
2020-03-30 05:00:00 7 0 Calma 7 Sudoeste 0 -- -- 66
2020-03-30 04:00:00 5.6 0 Calma 3 Noroeste 0 -- -- 77
2020-03-30 03:00:00 5.5 0 Calma 4 Norte 0 -- -- 80
2020-03-30 02:00:00 6.8 3 Norte 9 Norte 0 -- -- 76
2020-03-30 01:00:00 7.3 3 Nordeste 7 Norte 0 -- -- 74
2020-03-30 00:00:00 7.5 3 Norte 11 Nordeste 0 -- -- 69
2020-03-29 23:00:00 8.8 6 Este 14 Nordeste 0 -- -- 61
2020-03-29 22:00:00 8.6 8 Este 13 Este 0 -- -- 54
2020-03-29 21:00:00 7.9 4 Este 8 Este 0 -- -- 58
2020-03-29 20:00:00 11 3 Sudoeste 9 Oeste 0 -- -- 59
2020-03-29 19:00:00 11.9 6 Oeste 17 Oeste 0 -- -- 72
2020-03-29 18:00:00 11.3 9 Oeste 18 Oeste 0 -- -- 76
2020-03-29 17:00:00 11.1 9 Oeste 20 Oeste 0 -- -- 75
2020-03-29 16:00:00 11 10 Oeste 21 Noroeste 0 -- -- 80
2020-03-29 15:00:00 11.5 13 Oeste 22 Oeste 0 -- -- 79
2020-03-29 14:00:00 12.1 11 Oeste 19 Oeste 0 -- -- 67
2020-03-29 13:00:00 10.9 8 Oeste 14 Noroeste 0 -- -- 67
2020-03-29 12:00:00 11.1 6 Oeste 13 Oeste 0 -- -- 59
2020-03-29 11:00:00 11.9 5 Oeste 10 Oeste 0 -- -- 31
2020-03-29 10:00:00 10.6 5 Oeste 13 Oeste 0 -- -- 29
2020-03-29 09:00:00 6.1 0 Calma 9 Sudoeste 0 -- -- 51
2020-03-29 08:00:00 3.4 2 Sudeste 12 Oeste 0 -- -- 52
2020-03-29 07:00:00 2.9 0 Calma 10 Sudoeste 0 -- -- 56
2020-03-29 06:00:00 2.5 0 Calma 4 Sudeste 0 -- -- 61
2020-03-29 05:00:00 2.1 0 Calma 6 Este 0 -- -- 66
2020-03-29 04:00:00 1.2 3 Nordeste 7 Este 0 -- -- 100
2020-03-29 00:00:00 2 2 Nordeste 6 Este 0 -- -- 100
2020-03-28 23:00:00 2.9 3 Nordeste 6 Este 0 -- -- 100
2020-03-28 22:00:00 2.5 0 Calma 8 Nordeste 0 -- -- 98
2020-03-28 21:00:00 2.7 0 Calma 3 Este 0 -- -- 98
2020-03-28 20:00:00 5.2 0 Calma 17 Oeste 0 -- -- 99
2020-03-28 19:00:00 6.1 7 Oeste 17 Oeste 0 -- -- 99
2020-03-28 18:00:00 7 5 Oeste 15 Oeste 0 -- -- 99
2020-03-28 17:00:00 7.5 9 Oeste 17 Oeste 0 -- -- 95
2020-03-28 16:00:00 8.2 9 Oeste 20 Oeste 0 -- -- 94
2020-03-28 15:00:00 8 12 Oeste 20 Oeste 0 -- -- 95
2020-03-28 14:00:00 7.6 4 Este 11 Norte 0 -- -- 95
2020-03-28 13:00:00 9.3 5 Norte 16 Oeste 0 -- -- 89
2020-03-28 12:00:00 8.7 7 Oeste 14 Oeste 0 -- -- 80
2020-03-28 11:00:00 9.9 3 Este 10 Este 0 -- -- 73
2020-03-28 10:00:00 8.2 3 Norte 15 Nordeste 0 -- -- 78
2020-03-28 09:00:00 8.4 5 Nordeste 12 Nordeste 0 -- -- 79
2020-03-28 08:00:00 4.1 3 Este 10 Nordeste 0 -- -- 87
2020-03-28 07:00:00 1.1 2 Este 11 Noroeste 0 -- -- 96
2020-03-28 06:00:00 1.6 2 Norte 10 Noroeste 0 -- -- 98
2020-03-28 05:00:00 2.4 4 Noroeste 14 Noroeste 0 -- -- 99
2020-03-28 04:00:00 2.6 0 Calma 15 Noroeste 0 -- -- 100
2020-03-28 03:00:00 3.3 3 Oeste 13 Oeste 0 -- -- 100
2020-03-28 02:00:00 3.8 0 Calma 24 Oeste 0.2 -- -- 100
2020-03-28 01:00:00 4.8 15 Oeste 23 Oeste 1 -- -- 100
2020-03-28 00:00:00 5.3 5 Oeste 11 Oeste 1.8 -- -- 100
2020-03-27 23:00:00 4.9 0 Calma 14 Noroeste 0 -- -- 100
2020-03-27 22:00:00 4.9 10 Sudoeste 18 Sudoeste 0 -- -- 100
2020-03-27 21:00:00 5.2 11 Oeste 19 Oeste 0 -- -- 100
2020-03-27 20:00:00 5.5 5 Sudoeste 22 Oeste 0 -- -- 100
2020-03-27 19:00:00 6 10 Oeste 24 Oeste 0 -- -- 99
2020-03-27 18:00:00 7.1 15 Oeste 24 Oeste 0 -- -- 94
2020-03-27 17:00:00 8.3 12 Oeste 23 Oeste 0 -- -- 86
2020-03-27 16:00:00 8.9 14 Oeste 28 Oeste 0 -- -- 79
2020-03-27 15:00:00 9.4 10 Oeste 26 Oeste 0 -- -- 73
2020-03-27 14:00:00 9.3 9 Oeste 20 Oeste 0 -- -- 69
2020-03-27 13:00:00 9 5 Oeste 21 Oeste 0 -- -- 82
2020-03-27 12:00:00 7.2 9 Oeste 19 Oeste 0 -- -- 95
2020-03-27 11:00:00 5.8 10 Oeste 22 Oeste 0.2 -- -- 100
2020-03-27 10:00:00 6 6 Oeste 22 Oeste 0 -- -- 99
2020-03-27 09:00:00 5.1 8 Oeste 17 Oeste 0 -- -- 99
2020-03-27 08:00:00 4.7 5 Oeste 16 Oeste 0 -- -- 100
2020-03-27 07:00:00 3.4 3 Este 13 Noroeste 0 -- -- 98
2020-03-27 06:00:00 3.2 4 Noroeste 13 Norte 0 -- -- 100
2020-03-27 05:00:00 4 4 Oeste 13 Noroeste 0.4 -- -- 100
2020-03-27 04:00:00 4 4 Oeste 13 Oeste 0 -- -- 100
2020-03-27 03:00:00 3 3 Sudoeste 9 Oeste 0 -- -- 99
2020-03-27 02:00:00 2.8 2 Oeste 9 Noroeste 0 -- -- 100
2020-03-27 01:00:00 2.5 0 Calma 6 Noroeste 0 -- -- 100
2020-03-27 00:00:00 2.4 0 Calma 13 Oeste 0 -- -- 100
2020-03-26 23:00:00 3 8 Oeste 25 Oeste 0 -- -- 100
2020-03-26 22:00:00 3.3 14 Oeste 31 Oeste 0 -- -- 100
2020-03-26 21:00:00 3.9 4 Noroeste 14 Oeste 0 -- -- 100
2020-03-26 20:00:00 4 4 Oeste 14 Oeste 0 -- -- 100
2020-03-26 19:00:00 4.6 5 Oeste 13 Oeste 0 -- -- 100
2020-03-26 18:00:00 4.6 8 Oeste 18 Oeste 0.4 -- -- 100
2020-03-26 17:00:00 5.4 10 Oeste 18 Oeste 0 -- -- 99
2020-03-26 16:00:00 5.4 9 Oeste 21 Oeste 0 -- -- 98
2020-03-26 15:00:00 6 9 Oeste 26 Oeste 0 -- -- 96
2020-03-26 14:00:00 6.4 12 Oeste 19 Oeste 0 -- -- 92
2020-03-26 13:00:00 6.5 10 Oeste 18 Oeste 0 -- -- 86
2020-03-26 12:00:00 7 9 Noroeste 20 Oeste 0 -- -- 74
2020-03-26 11:00:00 8 8 Oeste 17 Oeste 0 -- -- 71
2020-03-26 10:00:00 6.2 4 Noroeste 12 Oeste 0 -- -- 80
2020-03-26 09:00:00 5.9 5 Norte 13 Noroeste 0 -- -- 79
2020-03-26 08:00:00 4.4 2 Nordeste 9 Este 0 -- -- 87
2020-03-26 07:00:00 1.6 0 Calma 8 Noroeste 0 -- -- 97
2020-03-26 06:00:00 2.7 4 Noroeste 8 Noroeste 0 -- -- 94
2020-03-26 05:00:00 2.8 2 Nordeste 8 Nordeste 0 -- -- 97
2020-03-26 04:00:00 2.7 2 Norte 9 Norte 0 -- -- 100
2020-03-26 03:00:00 3.5 3 Oeste 13 Noroeste 0.2 -- -- 100
2020-03-26 02:00:00 3.5 3 Oeste 9 Este 0 -- -- 100
2020-03-26 01:00:00 3.4 2 Sur 10 Norte 0 -- -- 99
2020-03-26 00:00:00 3 0 Calma 10 Este 0 -- -- 100
2020-03-25 23:00:00 2.5 3 Este 8 Este 0 -- -- 86
2020-03-25 22:00:00 3 4 Este 13 Este 0 -- -- 99
2020-03-25 21:00:00 3.3 2 Este 11 Este 0 -- -- 96
2020-03-25 20:00:00 4.2 5 Oeste 13 Oeste 0 -- -- 100
2020-03-25 19:00:00 4.8 6 Oeste 17 Oeste 0 -- -- 100
2020-03-25 18:00:00 5.3 11 Oeste 18 Oeste 0 -- -- 99
2020-03-25 17:00:00 5.9 10 Oeste 17 Noroeste 0 -- -- 97
2020-03-25 16:00:00 5.9 9 Oeste 14 Oeste 0 -- -- 98
2020-03-25 15:00:00 6 10 Oeste 16 Oeste 0 -- -- 95
2020-03-25 14:00:00 7.4 9 Oeste 18 Oeste 0 -- -- 85
2020-03-25 13:00:00 8.8 8 Oeste 14 Oeste 0 -- -- 74
2020-03-25 12:00:00 7.3 5 Noroeste 12 Oeste 0 -- -- 79
2020-03-25 11:00:00 7.4 8 Oeste 15 Oeste 0 -- -- 81
2020-03-25 10:00:00 6.5 4 Oeste 10 Oeste 0 -- -- 79
2020-03-25 09:00:00 4 3 Oeste 8 Oeste 0 -- -- 100
2020-03-25 08:00:00 3.1 3 Oeste 7 Este 0 -- -- 100
2020-03-25 07:00:00 2.7 0 Calma 13 Este 0 -- -- 100
2020-03-25 06:00:00 2.9 3 Sudeste 13 Este 0 -- -- 100
2020-03-25 05:00:00 3.2 3 Sudeste 11 Sudeste 0 -- -- 100
2020-03-25 04:00:00 3 4 Noroeste 13 Noroeste 0 -- -- 100
2020-03-25 03:00:00 3.7 3 Sudoeste 22 Oeste 0 -- -- 100
2020-03-25 02:00:00 4 6 Este 19 Oeste 0 -- -- 100
2020-03-25 01:00:00 4 7 Oeste 22 Noroeste 0 -- -- 100
2020-03-25 00:00:00 3.7 8 Oeste 23 Oeste 0 -- -- 100
2020-03-24 23:00:00 3.2 7 Norte 23 Noroeste 0 -- -- 99
2020-03-24 22:00:00 3.5 8 Norte 24 Norte 0 -- -- 99
2020-03-24 21:00:00 4.2 5 Norte 21 Oeste 0 -- -- 100
2020-03-24 20:00:00 4.1 8 Noroeste 21 Norte 0 -- -- 100
2020-03-24 19:00:00 4.5 9 Noroeste 23 Oeste 0.2 -- -- 100
2020-03-24 18:00:00 5 10 Oeste 32 Sudoeste 0 -- -- 100
2020-03-24 17:00:00 6.1 10 Oeste 29 Oeste 0 -- -- 97
2020-03-24 16:00:00 7.4 11 Oeste 28 Oeste 0 -- -- 90
2020-03-24 15:00:00 8.1 15 Oeste 23 Oeste 0 -- -- 92
2020-03-24 14:00:00 7.7 6 Oeste 21 Oeste 0 -- -- 95
2020-03-24 13:00:00 6.3 6 Oeste 32 Oeste 0 -- -- 99
2020-03-24 12:00:00 5 9 Noroeste 26 Noroeste 0 -- -- 100
2020-03-24 11:00:00 4.3 11 Noroeste 30 Oeste 0.8 -- -- 100
2020-03-24 10:00:00 4.2 8 Noroeste 26 Oeste 1.2 -- -- 100
2020-03-24 09:00:00 3.7 11 Noroeste 33 Noroeste 0.2 -- -- 100
2020-03-24 08:00:00 4 13 Noroeste 34 Noroeste 0.2 -- -- 100
2020-03-24 07:00:00 3.5 11 Noroeste 36 Noroeste 0.4 -- -- 100
2020-03-24 06:00:00 4 16 Noroeste 36 Noroeste 0.2 -- -- 100
2020-03-24 05:00:00 4.1 15 Oeste 38 Noroeste 0.2 -- -- 100
2020-03-24 04:00:00 4 15 Noroeste 36 Noroeste 0.2 -- -- 100
2020-03-24 03:00:00 4.1 14 Noroeste 41 Oeste 0.2 -- -- 100
2020-03-24 02:00:00 3.9 17 Oeste 41 Noroeste 0 -- -- 100
2020-03-24 01:00:00 3.4 15 Oeste 38 Noroeste 0.2 -- -- 100
2020-03-24 00:00:00 3.9 15 Noroeste 44 Noroeste 0.6 -- -- 100
2020-03-23 23:00:00 3.6 20 Noroeste 43 Norte 0.4 -- -- 100
2020-03-23 22:00:00 4.1 17 Oeste 42 Noroeste 0.6 -- -- 100
2020-03-23 21:00:00 3.6 19 Noroeste 49 Noroeste 0 -- -- 100
2020-03-23 20:00:00 3.4 18 Oeste 42 Noroeste 0.4 -- -- 100
2020-03-23 19:00:00 3.1 19 Oeste 41 Norte 0.2 -- -- 100
2020-03-23 18:00:00 3.4 19 Oeste 43 Oeste 0.2 -- -- 100
2020-03-23 17:00:00 3.5 19 Oeste 39 Oeste 0.2 -- -- 100
2020-03-23 16:00:00 3.4 15 Oeste 32 Oeste 1 -- -- 100
2020-03-23 15:00:00 4.1 19 Noroeste 53 Oeste 1.8 -- -- 100
2020-03-23 14:00:00 4 19 Noroeste 48 Noroeste 2.4 -- -- 100
2020-03-23 13:00:00 3.5 23 Noroeste 46 Noroeste 0.6 -- -- 100
2020-03-23 12:00:00 2.8 18 Noroeste 47 Noroeste 3.2 -- -- 100
2020-03-23 11:00:00 2.4 16 Oeste 44 Noroeste 3.8 -- -- 100
2020-03-23 10:00:00 1.7 15 Noroeste 39 Noroeste 4 -- -- 100
2020-03-23 09:00:00 1.4 18 Noroeste 58 Noroeste 5.2 -- -- 100
2020-03-23 08:00:00 1.5 16 Noroeste 64 Oeste 4.8 -- -- 100
2020-03-23 07:00:00 1.7 18 Noroeste 71 Oeste 4.6 -- -- 100
2020-03-23 06:00:00 1.8 15 Noroeste 64 Oeste 3 -- -- 100
2020-03-23 05:00:00 1.9 39 Oeste 80 Oeste 3.2 -- -- 100
2020-03-23 04:00:00 1.8 40 Oeste 71 Oeste 0.8 -- -- 100
2020-03-23 03:00:00 2.1 39 Oeste 66 Oeste 0.2 -- -- 100
2020-03-23 02:00:00 2.5 31 Oeste 54 Oeste 0.2 -- -- 100
2020-03-23 01:00:00 3.2 28 Oeste 55 Oeste 0 -- -- 100
2020-03-23 00:00:00 2.8 34 Oeste 60 Oeste 0 -- -- 100
2020-03-22 23:00:00 2.9 28 Oeste 59 Oeste 0 -- -- 100
2020-03-22 22:00:00 2.9 24 Oeste 46 Oeste 0 -- -- 100
2020-03-22 21:00:00 2.7 22 Oeste 42 Oeste 0 -- -- 100
2020-03-22 20:00:00 3.8 23 Oeste 44 Oeste 2.8 -- -- 100
2020-03-22 19:00:00 4.8 15 Oeste 26 Oeste 1 -- -- 99
2020-03-22 18:00:00 5.8 9 Oeste 22 Oeste 0 -- -- 91
2020-03-22 17:00:00 9.1 12 Oeste 31 Oeste 0 -- -- 67
2020-03-22 16:00:00 8.6 21 Oeste 38 Oeste 0 -- -- 56
2020-03-22 15:00:00 9.8 17 Oeste 30 Oeste 0 -- -- 57
2020-03-22 14:00:00 9.3 12 Oeste 25 Noroeste 0 -- -- 66
2020-03-22 13:00:00 6.9 8 Oeste 21 Oeste 0 -- -- 87
2020-03-22 12:00:00 5.5 12 Oeste 26 Oeste 0 -- -- 100
2020-03-22 11:00:00 4.6 13 Oeste 28 Oeste 0.2 -- -- 100
2020-03-22 10:00:00 4.1 17 Oeste 33 Oeste 0.6 -- -- 100
2020-03-22 09:00:00 3.6 8 Oeste 35 Oeste 0 -- -- 100
2020-03-22 08:00:00 2.8 10 Oeste 33 Oeste 0 -- -- 100
2020-03-22 07:00:00 2.8 12 Oeste 23 Oeste 0 -- -- 100
2020-03-22 06:00:00 2.7 5 Norte 13 Oeste 0.2 -- -- 100
2020-03-22 05:00:00 3 5 Noroeste 18 Norte 0 -- -- 100
2020-03-22 04:00:00 2.9 4 Noroeste 19 Norte 0 -- -- 100
2020-03-22 03:00:00 2.5 10 Noroeste 25 Noroeste 0 -- -- 100
2020-03-22 02:00:00 2.4 5 Noroeste 18 Norte 0 -- -- 100
2020-03-22 01:00:00 2.4 7 Oeste 13 Norte 0 -- -- 100
2020-03-22 00:00:00 3 5 Norte 15 Oeste 0.2 -- -- 100
2020-03-21 23:00:00 3.4 5 Noroeste 26 Este 0.2 -- -- 100
2020-03-21 22:00:00 3.7 9 Nordeste 29 Nordeste 0.2 -- -- 100
2020-03-21 21:00:00 3.4 5 Noroeste 20 Noroeste 0 -- -- 100
2020-03-21 20:00:00 3.2 4 Norte 19 Este 0 -- -- 99
2020-03-21 19:00:00 3.5 9 Nordeste 18 Nordeste 0 -- -- 94
2020-03-21 18:00:00 5.6 5 Este 15 Oeste 0 -- -- 92
2020-03-21 17:00:00 9.1 7 Noroeste 14 Oeste 0 -- -- 80
2020-03-21 16:00:00 8.3 3 Norte 13 Noroeste 0 -- -- 87
2020-03-21 15:00:00 8 6 Este 14 Nordeste 0 -- -- 88
2020-03-21 14:00:00 7.4 9 Este 17 Nordeste 0 -- -- 98
2020-03-21 13:00:00 7 9 Nordeste 22 Nordeste 0 -- -- 98
2020-03-21 12:00:00 6.1 11 Nordeste 26 Nordeste 0 -- -- 100
2020-03-21 11:00:00 4.5 17 Nordeste 26 Este 0.2 -- -- 100
2020-03-21 10:00:00 3.1 13 Este 29 Nordeste 0 -- -- 100
2020-03-21 09:00:00 2.2 17 Este 32 Nordeste 0 -- -- 100
2020-03-21 08:00:00 2.4 14 Este 37 Este 0.2 -- -- 100
2020-03-21 07:00:00 2.2 18 Este 35 Este 0.2 -- -- 100
2020-03-21 06:00:00 2.1 17 Este 29 Nordeste 0 -- -- 100
2020-03-21 05:00:00 2.4 15 Nordeste 30 Este 0 -- -- 100
2020-03-21 04:00:00 2.6 14 Este 33 Este 0 -- -- 100
2020-03-21 03:00:00 2.1 16 Este 31 Este 0 -- -- 100
2020-03-21 02:00:00 3 14 Este 32 Nordeste 0 -- -- 100
2020-03-21 01:00:00 3.6 14 Este 33 Este 0.2 -- -- 100
2020-03-21 00:00:00 4.3 16 Este 31 Este 0.4 -- -- 100
2020-03-20 23:00:00 4.5 13 Este 28 Este 0.6 -- -- 100
2020-03-20 22:00:00 4.8 14 Este 30 Este 0.4 -- -- 100
2020-03-20 21:00:00 5.5 8 Sudeste 21 Este 0.8 -- -- 100
2020-03-20 20:00:00 5.4 6 Sudeste 25 Este 0.6 -- -- 100
2020-03-20 19:00:00 5.5 4 Sur 21 Noroeste 0 -- -- 99
2020-03-20 18:00:00 6.3 5 Noroeste 17 Noroeste 0 -- -- 95
2020-03-20 17:00:00 8.2 5 Norte 16 Este 0 -- -- 78
2020-03-20 16:00:00 8.4 6 Este 19 Este 0 -- -- 74
2020-03-20 15:00:00 9.2 6 Nordeste 19 Este 0 -- -- 61
2020-03-20 14:00:00 8.5 6 Este 22 Este 0 -- -- 69
2020-03-20 13:00:00 7.7 9 Nordeste 23 Nordeste 0 -- -- 95
2020-03-20 12:00:00 6.7 6 Nordeste 23 Nordeste 0 -- -- 96
2020-03-20 11:00:00 5.5 5 Nordeste 25 Este 0 -- -- 100
2020-03-20 10:00:00 5 8 Nordeste 28 Nordeste 0 -- -- 100
2020-03-20 09:00:00 4.4 5 Nordeste 22 Este 0.2 -- -- 100
2020-03-20 08:00:00 5.3 6 Este 25 Nordeste 0.2 -- -- 100
2020-03-20 07:00:00 4.3 5 Este 25 Este 0 -- -- 100
2020-03-20 06:00:00 5.1 6 Este 27 Este 0.2 -- -- 100
2020-03-20 05:00:00 5.3 10 Este 27 Nordeste 0 -- -- 100
2020-03-20 04:00:00 5.3 5 Oeste 18 Norte 0.2 -- -- 100
2020-03-20 03:00:00 5.4 6 Sudeste 15 Norte 0 -- -- 100
2020-03-20 02:00:00 5.3 6 Sudeste 24 Nordeste 0 -- -- 100
2020-03-20 01:00:00 5.3 7 Nordeste 19 Nordeste 0.2 -- -- 100
2020-03-20 00:00:00 5.1 10 Oeste 26 Oeste 0 -- -- 100
2020-03-19 23:00:00 5.3 6 Sudoeste 26 Noroeste 0.2 -- -- 100
2020-03-19 22:00:00 5.5 9 Oeste 32 Noroeste 0.4 -- -- 100
2020-03-19 21:00:00 5.2 8 Sudoeste 33 Noroeste 0.2 -- -- 100
2020-03-19 20:00:00 5.1 13 Oeste 34 Oeste 0 -- -- 100
2020-03-19 19:00:00 5.1 6 Sudoeste 31 Noroeste 0 -- -- 100
2020-03-19 18:00:00 5.7 6 Sur 27 Noroeste 0 -- -- 99
2020-03-19 17:00:00 5.7 10 Noroeste 25 Oeste 0 -- -- 99
2020-03-19 16:00:00 5.8 8 Noroeste 28 Noroeste 0 -- -- 98
2020-03-19 15:00:00 6.7 5 Oeste 27 Este 0 -- -- 94
2020-03-19 14:00:00 7.2 7 Sur 25 Nordeste 0 -- -- 91
2020-03-19 13:00:00 6.7 7 Sudoeste 26 Oeste 0 -- -- 100
2020-03-19 12:00:00 6.2 8 Sudoeste 40 Noroeste 0 -- -- 100
2020-03-19 11:00:00 5.8 21 Noroeste 41 Noroeste 1.6 -- -- 100
2020-03-19 10:00:00 5.9 14 Oeste 39 Noroeste 2 -- -- 100
2020-03-19 09:00:00 5.6 18 Oeste 45 Noroeste 0.8 -- -- 100
2020-03-19 08:00:00 5 19 Oeste 42 Noroeste 0.8 -- -- 100
2020-03-19 07:00:00 5.3 15 Noroeste 49 Norte 0.6 -- -- 100
2020-03-19 06:00:00 4.3 14 Noroeste 40 Noroeste 0.2 -- -- 100
2020-03-19 05:00:00 4.5 18 Noroeste 39 Oeste 0 -- -- 100
2020-03-19 04:00:00 3.6 14 Noroeste 36 Noroeste 0 -- -- 100
2020-03-19 03:00:00 3.4 13 Oeste 42 Noroeste 0.2 -- -- 100
2020-03-19 02:00:00 4.5 12 Oeste 42 Oeste 0 -- -- 100
2020-03-19 01:00:00 4.4 14 Noroeste 45 Noroeste 0.2 -- -- 100
2020-03-19 00:00:00 4 12 Oeste 36 Oeste 0 -- -- 100
2020-03-18 23:00:00 3.4 13 Noroeste 35 Norte 0 -- -- 100
2020-03-18 22:00:00 2.2 12 Oeste 36 Oeste 0 -- -- 100
2020-03-18 21:00:00 3.1 13 Oeste 39 Oeste 0.2 -- -- 100
2020-03-18 20:00:00 4.3 14 Noroeste 46 Noroeste 0.4 -- -- 100
2020-03-18 19:00:00 3.9 14 Noroeste 35 Noroeste 0 -- -- 100
2020-03-18 18:00:00 3.4 9 Noroeste 32 Norte 0 -- -- 100
2020-03-18 17:00:00 3.9 8 Noroeste 36 Noroeste 0 -- -- 100
2020-03-18 16:00:00 4.4 10 Noroeste 33 Oeste 0 -- -- 99
2020-03-18 15:00:00 4.9 10 Norte 26 Oeste 0 -- -- 97
2020-03-18 14:00:00 4.1 11 Noroeste 28 Oeste 0 -- -- 100
2020-03-18 13:00:00 4.5 9 Sudoeste 25 Noroeste 0 -- -- 100
2020-03-18 12:00:00 4.1 6 Oeste 30 Noroeste 0 -- -- 100
2020-03-18 11:00:00 3.6 8 Sudoeste 24 Norte 0.2 -- -- 100
2020-03-18 10:00:00 3.1 6 Sudeste 18 Este 0 -- -- 100
2020-03-18 09:00:00 2.7 6 Sudoeste 22 Oeste 0 -- -- 100
2020-03-18 08:00:00 2.6 6 Sudeste 30 Este 0.6 -- -- 100
2020-03-18 07:00:00 3.1 9 Este 38 Este 0.6 -- -- 100
2020-03-18 06:00:00 3.3 7 Este 22 Nordeste 0.8 -- -- 100
2020-03-18 05:00:00 3.2 12 Este 28 Este 0.6 -- -- 100
2020-03-18 04:00:00 3 13 Este 30 Nordeste 0.4 -- -- 100
2020-03-18 03:00:00 2.7 8 Este 26 Este 0.2 -- -- 100
2020-03-18 02:00:00 3 10 Este 26 Este 0.6 -- -- 100
2020-03-18 01:00:00 3.4 12 Este 37 Este 1.2 -- -- 100
2020-03-18 00:00:00 3.7 14 Este 27 Este 0.8 -- -- 100
2020-03-17 23:00:00 3.9 9 Este 31 Este 0.4 -- -- 100
2020-03-17 22:00:00 3.5 11 Este 31 Este 0.4 -- -- 100
2020-03-17 21:00:00 3.4 16 Este 37 Este 0.2 -- -- 100
2020-03-17 20:00:00 3 14 Este 29 Nordeste 0 -- -- 100
2020-03-17 19:00:00 2.7 13 Este 28 Este 0 -- -- 100
2020-03-17 18:00:00 3.7 14 Este 28 Nordeste 0 -- -- 99
2020-03-17 17:00:00 4.7 13 Este 28 Este 0 -- -- 99
2020-03-17 16:00:00 5.9 13 Este 30 Este 0 -- -- 100
2020-03-17 15:00:00 5.6 13 Este 32 Este 0 -- -- 99
2020-03-17 14:00:00 5.3 19 Este 36 Este 0.2 -- -- 99
2020-03-17 13:00:00 4.6 18 Este 40 Este 0.2 -- -- 100
2020-03-17 12:00:00 4.5 22 Este 38 Este 0.4 -- -- 100
2020-03-17 11:00:00 3.4 23 Este 41 Este 0.4 -- -- 100
2020-03-17 10:00:00 3.5 25 Este 44 Nordeste 0.4 -- -- 100
2020-03-17 09:00:00 3.2 23 Este 44 Este 0.4 -- -- 100
2020-03-17 08:00:00 2.8 24 Este 39 Nordeste 0.4 -- -- 100
2020-03-17 07:00:00 2 23 Este 44 Nordeste 0.4 -- -- 100
2020-03-17 06:00:00 3.2 25 Este 41 Este 0.8 -- -- 100
2020-03-17 05:00:00 3.2 21 Este 41 Este 0.4 -- -- 100
2020-03-17 04:00:00 2.5 22 Este 39 Este 0.4 -- -- 100
2020-03-17 03:00:00 2.5 17 Este 39 Este 0.2 -- -- 100
2020-03-17 02:00:00 2.5 22 Este 39 Nordeste 0 -- -- 100
2020-03-17 01:00:00 3 20 Este 38 Este 0.2 -- -- 100
2020-03-17 00:00:00 3.5 24 Este 40 Este 0.4 -- -- 100
2020-03-16 23:00:00 3.8 22 Este 48 Este 0.8 -- -- 100
2020-03-16 22:00:00 4.7 24 Este 45 Este 0.4 -- -- 100
2020-03-16 21:00:00 4.4 22 Este 46 Este 0.8 -- -- 100
2020-03-16 20:00:00 4.9 22 Este 42 Este 0.4 -- -- 100
2020-03-16 19:00:00 4.8 22 Este 43 Este 0.4 -- -- 100
2020-03-16 18:00:00 5.3 23 Este 42 Nordeste 0 -- -- 100
2020-03-16 17:00:00 5.3 21 Este 46 Este 0 -- -- 100
2020-03-16 16:00:00 5.2 17 Este 37 Este 0 -- -- 100
2020-03-16 15:00:00 5.4 14 Este 43 Este 0 -- -- 100
2020-03-16 14:00:00 4.7 21 Este 58 Este 0 -- -- 99
2020-03-16 13:00:00 4.4 24 Este 49 Este 0 -- -- 99
2020-03-16 12:00:00 4 23 Este 43 Nordeste 0 -- -- 100
2020-03-16 11:00:00 3.8 23 Este 42 Este 0.2 -- -- 100
2020-03-16 10:00:00 4.2 23 Este 47 Este 0.4 -- -- 100
2020-03-16 09:00:00 4.4 23 Este 43 Este 0.2 -- -- 100
2020-03-16 08:00:00 4.1 22 Este 44 Este 0.4 -- -- 100
2020-03-16 07:00:00 3.7 15 Este 33 Este 0 -- -- 100
2020-03-16 06:00:00 3.8 12 Sudeste 27 Este 0.4 -- -- 100
2020-03-16 05:00:00 3.9 11 Sudeste 35 Sudeste 0 -- -- 100
2020-03-16 04:00:00 4.4 19 Este 37 Este 0.4 -- -- 100
2020-03-16 03:00:00 4.6 14 Este 38 Este 0 -- -- 100
2020-03-16 02:00:00 4.3 19 Este 42 Este 0.4 -- -- 100
2020-03-16 01:00:00 4 19 Este 39 Este 0 -- -- 100
2020-03-16 00:00:00 3.2 18 Este 42 Este 0.2 -- -- 99
2020-03-15 23:00:00 4.5 18 Este 42 Este 0.8 -- -- 100
2020-03-15 22:00:00 3.6 18 Este 41 Este 0 -- -- 100
2020-03-15 21:00:00 3.6 18 Este 36 Este 0.2 -- -- 99
2020-03-15 20:00:00 4.4 13 Este 34 Este 0.6 -- -- 100
2020-03-15 19:00:00 4.9 10 Este 28 Este 0.6 -- -- 99
2020-03-15 18:00:00 4.4 8 Este 29 Este 0.4 -- -- 99
2020-03-15 17:00:00 5.4 5 Sudoeste 25 Oeste 0.6 -- -- 98
2020-03-15 16:00:00 6 5 Oeste 28 Nordeste 0.2 -- -- 98
2020-03-15 15:00:00 5.3 5 Sudeste 19 Noroeste 0 -- -- 97
2020-03-15 14:00:00 5.4 4 Noroeste 18 Noroeste 0 -- -- 98
2020-03-15 13:00:00 5.2 5 Oeste 15 Oeste 0 -- -- 99
2020-03-15 12:00:00 5.1 5 Sudeste 19 Sudeste 0.2 -- -- 99
2020-03-15 11:00:00 4.7 4 Sudeste 15 Nordeste 0 -- -- 99
2020-03-15 10:00:00 4.4 6 Este 16 Este 0.2 -- -- 99
2020-03-15 09:00:00 4.3 4 Sudeste 20 Este 0.2 -- -- 99
2020-03-15 08:00:00 3.4 6 Este 20 Nordeste 0.4 -- -- 99
2020-03-15 07:00:00 3.9 12 Este 26 Nordeste 0.2 -- -- 99
2020-03-15 06:00:00 3.6 11 Este 26 Este 0.2 -- -- 99
2020-03-15 05:00:00 3.8 13 Nordeste 24 Nordeste 0.4 -- -- 98
2020-03-15 04:00:00 3.5 10 Nordeste 23 Nordeste 0 -- -- 98
2020-03-15 03:00:00 4 14 Nordeste 26 Este 0 -- -- 98
2020-03-15 02:00:00 3.5 12 Nordeste 22 Este 0 -- -- 97
2020-03-15 01:00:00 3.3 9 Nordeste 17 Nordeste 0 -- -- 96
2020-03-15 00:00:00 3.4 5 Nordeste 13 Nordeste 0 -- -- 82
2020-03-14 23:00:00 4.6 5 Nordeste 10 Nordeste 0 -- -- 69
2020-03-14 22:00:00 4.4 5 Nordeste 12 Nordeste 0 -- -- 72
2020-03-14 21:00:00 7.2 3 Norte 8 Noroeste 0 -- -- 40
2020-03-14 20:00:00 7.7 0 Calma 4 Noroeste 0 -- -- 35
2020-03-14 19:00:00 9.2 0 Calma 9 Oeste 0 -- -- 54
2020-03-14 18:00:00 11.7 5 Oeste 16 Oeste 0 -- -- 68
2020-03-14 17:00:00 11.2 11 Oeste 21 Oeste 0 -- -- 76
2020-03-14 16:00:00 12.1 10 Oeste 26 Oeste 0 -- -- 74
2020-03-14 15:00:00 12.6 16 Oeste 30 Oeste 0 -- -- 70
2020-03-14 14:00:00 14.1 14 Oeste 22 Oeste 0 -- -- 51
2020-03-14 13:00:00 13 11 Noroeste 19 Oeste 0 -- -- 59
2020-03-14 12:00:00 14.2 8 Oeste 14 Oeste 0 -- -- 44
2020-03-14 11:00:00 14.5 6 Oeste 13 Oeste 0 -- -- 23
2020-03-14 10:00:00 15.3 5 Oeste 9 Oeste 0 -- -- 17
2020-03-14 09:00:00 14.3 3 Sudoeste 6 Oeste 0 -- -- 17
2020-03-14 08:00:00 8.5 0 Calma 4 Sudeste 0 -- -- 26
2020-03-14 07:00:00 8.3 2 Sur 6 Sudeste 0 -- -- 22
2020-03-14 06:00:00 8.6 0 Calma 4 Sudeste 0 -- -- 22
2020-03-14 05:00:00 9.4 0 Calma 5 Sudoeste 0 -- -- 20
2020-03-14 04:00:00 8.4 3 Este 5 Sudeste 0 -- -- 23
2020-03-14 03:00:00 9 0 Calma 6 Norte 0 -- -- 20
2020-03-14 02:00:00 8 0 Calma 3 Este 0 -- -- 30
2020-03-14 01:00:00 8.6 0 Calma 5 Noroeste 0 -- -- 31
2020-03-14 00:00:00 9.5 2 Norte 5 Oeste 0 -- -- 28
2020-03-13 23:00:00 8.7 0 Calma -- -- 0 -- -- 29
2020-03-13 22:00:00 9.1 0 Calma -- -- 0 -- -- 31
2020-03-13 21:00:00 9.8 0 Calma 3 Este 0 -- -- 30
2020-03-13 20:00:00 9.3 0 Calma 3 Sudeste 0 -- -- 48
2020-03-13 19:00:00 11.6 0 Calma 9 Oeste 0 -- -- 49
2020-03-13 18:00:00 13.7 6 Oeste 12 Oeste 0 -- -- 35
2020-03-13 17:00:00 13.8 8 Oeste 19 Oeste 0 -- -- 34
2020-03-13 16:00:00 15.5 12 Oeste 23 Oeste 0 -- -- 36
2020-03-13 15:00:00 16.8 6 Oeste 16 Noroeste 0 -- -- 40
2020-03-13 14:00:00 17.4 7 Noroeste 15 Oeste 0 -- -- 33
2020-03-13 13:00:00 16 9 Nordeste 22 Este 0 -- -- 27
2020-03-13 12:00:00 17.1 9 Este 18 Nordeste 0 -- -- 24
2020-03-13 11:00:00 16.3 7 Nordeste 15 Este 0 -- -- 22
2020-03-13 10:00:00 16.2 7 Este 17 Nordeste 0 -- -- 19
2020-03-13 09:00:00 15.7 4 Este 9 Este 0 -- -- 23
2020-03-13 08:00:00 9.9 4 Este 7 Nordeste 0 -- -- 32
2020-03-13 07:00:00 8.7 3 Este 6 Este 0 -- -- 32
2020-03-13 06:00:00 9.7 4 Este 10 Este 0 -- -- 29
2020-03-13 05:00:00 9.8 7 Este 9 Este 0 -- -- 28
2020-03-13 04:00:00 9.9 6 Este 9 Este 0 -- -- 28
2020-03-13 03:00:00 10.3 6 Este 7 Este 0 -- -- 27
2020-03-13 02:00:00 10.3 5 Este 7 Este 0 -- -- 28
2020-03-13 01:00:00 9.9 4 Este 6 Este 0 -- -- 29
2020-03-13 00:00:00 9.6 4 Este 5 Este 0 -- -- 30
2020-03-12 23:00:00 9.8 3 Este 4 Este 0 -- -- 41
2020-03-12 22:00:00 9.8 0 Calma 4 Este 0 -- -- 41
2020-03-12 21:00:00 10 2 Este 5 Este 0 -- -- 41
2020-03-12 20:00:00 10.5 0 Calma 4 Este 0 -- -- 40
2020-03-12 19:00:00 13.6 0 Calma 9 Este 0 -- -- 43
2020-03-12 18:00:00 16.3 5 Este 13 Este 0 -- -- 45
2020-03-12 17:00:00 16.9 8 Noroeste 21 Sudeste 0 -- -- 44
2020-03-12 16:00:00 17.9 5 Sudeste 22 Sur 0 -- -- 22
2020-03-12 15:00:00 18.4 11 Sudeste 27 Sudeste 0 -- -- 21
2020-03-12 14:00:00 18 12 Sur 29 Sudeste 0 -- -- 22
2020-03-12 13:00:00 18.1 14 Sudeste 27 Sudeste 0 -- -- 19
2020-03-12 12:00:00 17.6 15 Sudeste 25 Sudeste 0 -- -- 21
2020-03-12 11:00:00 17.8 8 Este 20 Este 0 -- -- 19
2020-03-12 10:00:00 17.2 10 Este 21 Este 0 -- -- 17
2020-03-12 09:00:00 15.4 10 Este 23 Este 0 -- -- 18
2020-03-12 08:00:00 11.9 12 Este 20 Este 0 -- -- 17
2020-03-12 07:00:00 11 11 Este 17 Este 0 -- -- 15
2020-03-12 06:00:00 11 12 Este 19 Este 0 -- -- 14
2020-03-12 05:00:00 10.5 7 Este 13 Este 0 -- -- 17
2020-03-12 04:00:00 10.2 5 Este 11 Este 0 -- -- 20
2020-03-12 03:00:00 11.9 8 Este 13 Este 0 -- -- 17
2020-03-12 02:00:00 12 6 Este 20 Este 0 -- -- 17
2020-03-12 01:00:00 12.7 7 Este 17 Sudeste 0 -- -- 16
2020-03-12 00:00:00 12.1 5 Este 14 Sudeste 0 -- -- 17
2020-03-11 23:00:00 11.5 3 Sudeste 16 Sudeste 0 -- -- 18
2020-03-11 22:00:00 12.2 6 Este 15 Este 0 -- -- 17
2020-03-11 21:00:00 12.2 6 Este 9 Este 0 -- -- 17
2020-03-11 20:00:00 12.4 4 Este 12 Sudeste 0 -- -- 17
2020-03-11 19:00:00 15 6 Sudeste 15 Sudeste 0 -- -- 15
2020-03-11 18:00:00 15.6 8 Sudeste 18 Sudeste 0 -- -- 13
2020-03-11 17:00:00 16.1 9 Sudeste 26 Sudeste 0 -- -- 14
2020-03-11 16:00:00 17.8 10 Sudeste 26 Este 0 -- -- 13
2020-03-11 15:00:00 17.1 9 Sudeste 28 Sudeste 0 -- -- 14
2020-03-11 14:00:00 18.3 11 Sudeste 30 Sudeste 0 -- -- 11
2020-03-11 13:00:00 17.8 18 Sudeste 29 Sudeste 0 -- -- 9
2020-03-11 12:00:00 17.3 17 Sudeste 32 Este 0 -- -- 12
2020-03-11 11:00:00 17.6 15 Sudeste 36 Sudeste 0 -- -- 16
2020-03-11 10:00:00 13.5 17 Sudeste 27 Sudeste 0 -- -- 22
2020-03-11 09:00:00 13 18 Sudeste 32 Sudeste 0 -- -- 22
2020-03-11 08:00:00 12.8 11 Sudeste 25 Sudeste 0 -- -- 17
2020-03-11 07:00:00 12.6 11 Sudeste 19 Sudeste 0 -- -- 14
2020-03-11 06:00:00 12.2 7 Sudeste 21 Sudeste 0 -- -- 13
2020-03-11 05:00:00 13.1 15 Sudeste 24 Sudeste 0 -- -- 12
2020-03-11 04:00:00 12.7 13 Sudeste 27 Sudeste 0 -- -- 13
2020-03-11 03:00:00 12.9 16 Sudeste 28 Sudeste 0 -- -- 13
2020-03-11 02:00:00 13 14 Sudeste 29 Sur 0 -- -- 13
2020-03-11 01:00:00 13.1 15 Sudeste 30 Este 0 -- -- 13
2020-03-11 00:00:00 13.2 16 Sudeste 28 Sudeste 0 -- -- 10
2020-03-10 23:00:00 13.2 13 Sudeste 20 Sudeste 0 -- -- 9
2020-03-10 22:00:00 13.6 13 Este 19 Sudeste 0 -- -- 7
2020-03-10 21:00:00 11.9 10 Este 14 Este 0 -- -- 15
2020-03-10 20:00:00 10.7 6 Este 9 Este 0 -- -- 56
2020-03-10 19:00:00 10.7 2 Norte 12 Oeste 0 -- -- 35
2020-03-10 18:00:00 15 9 Oeste 19 Oeste 0 -- -- 28
2020-03-10 17:00:00 17 11 Oeste 18 Oeste 0 -- -- 30
2020-03-10 16:00:00 17.6 9 Oeste 22 Oeste 0 -- -- 29
2020-03-10 15:00:00 17.8 12 Oeste 21 Oeste 0 -- -- 28
2020-03-10 14:00:00 18.4 11 Oeste 18 Oeste 0 -- -- 24
2020-03-10 13:00:00 19.9 6 Oeste 13 Nordeste 0 -- -- 18
2020-03-10 12:00:00 20 5 Este 21 Este 0 -- -- 17
2020-03-10 11:00:00 18.2 10 Este 26 Este 0 -- -- 11
2020-03-10 10:00:00 16.9 11 Este 22 Nordeste 0 -- -- 16
2020-03-10 09:00:00 15 10 Este 22 Este 0 -- -- 22
2020-03-10 08:00:00 11.2 12 Este 22 Este 0 -- -- 24
2020-03-10 07:00:00 10.9 13 Este 25 Este 0 -- -- 20
2020-03-10 06:00:00 11 14 Este 29 Este 0 -- -- 18
2020-03-10 05:00:00 10.8 15 Este 28 Este 0 -- -- 16
2020-03-10 04:00:00 10.4 16 Este 28 Este 0 -- -- 19
2020-03-10 03:00:00 10.4 17 Este 29 Este 0 -- -- 22
2020-03-10 02:00:00 10.3 17 Este 33 Este 0 -- -- 23
2020-03-10 01:00:00 10.7 23 Este 34 Este 0 -- -- 23
2020-03-10 00:00:00 10.2 21 Este 32 Este 0 -- -- 26
2020-03-09 23:00:00 10.7 21 Sudeste 31 Este 0 -- -- 30
2020-03-09 22:00:00 10.6 17 Este 34 Sudeste 0 -- -- 30
2020-03-09 21:00:00 10.7 20 Este 39 Este 0 -- -- 31
2020-03-09 20:00:00 10.6 16 Este 33 Este 0 -- -- 33
2020-03-09 19:00:00 11.4 12 Sudeste 24 Este 0 -- -- 31
2020-03-09 18:00:00 14 14 Este 33 Este 0 -- -- 24
2020-03-09 17:00:00 14.9 15 Este 32 Este 0 -- -- 24
2020-03-09 16:00:00 15.7 17 Este 36 Este 0 -- -- 22
2020-03-09 15:00:00 15.9 17 Este 32 Este 0 -- -- 22
2020-03-09 14:00:00 16.4 17 Este 33 Este 0 -- -- 23
2020-03-09 13:00:00 16.4 14 Este 38 Este 0 -- -- 22
2020-03-09 12:00:00 15.9 25 Este 45 Este 0 -- -- 22
2020-03-09 11:00:00 15.4 23 Este 42 Este 0 -- -- 23
2020-03-09 10:00:00 14.4 22 Este 39 Sudeste 0 -- -- 24
2020-03-09 09:00:00 12.9 24 Sudeste 35 Sudeste 0 -- -- 23
2020-03-09 08:00:00 10.2 23 Este 39 Este 0 -- -- 29
2020-03-09 07:00:00 10.1 24 Este 36 Este 0 -- -- 29
2020-03-09 06:00:00 9.9 23 Este 42 Sudeste 0 -- -- 31
2020-03-09 05:00:00 10.1 21 Este 35 Este 0 -- -- 30
2020-03-09 04:00:00 10.7 20 Este 40 Sudeste 0 -- -- 28
2020-03-09 03:00:00 11 20 Este 37 Nordeste 0 -- -- 26
2020-03-09 02:00:00 11.9 17 Este 38 Este 0 -- -- 22
2020-03-09 01:00:00 12.5 20 Este 40 Este 0 -- -- 21
2020-03-09 00:00:00 12.8 23 Este 49 Este 0 -- -- 21
2020-03-08 23:00:00 12.8 21 Este 44 Este 0 -- -- 21
2020-03-08 22:00:00 13 20 Este 49 Este 0 -- -- 20
2020-03-08 21:00:00 13.2 24 Este 44 Este 0 -- -- 19
2020-03-08 20:00:00 13 19 Este 40 Este 0 -- -- 19
2020-03-08 19:00:00 13.1 20 Este 36 Este 0 -- -- 18
2020-03-08 18:00:00 15.1 19 Este 35 Este 0 -- -- 14
2020-03-08 17:00:00 16.5 18 Este 37 Sudeste 0 -- -- 17
2020-03-08 16:00:00 17.5 14 Este 31 Este 0 -- -- 16
2020-03-08 15:00:00 18.2 14 Este 38 Sudeste 0 -- -- 15
2020-03-08 14:00:00 18 12 Este 32 Este 0 -- -- 17
2020-03-08 13:00:00 17.4 15 Este 34 Sudeste 0 -- -- 19
2020-03-08 12:00:00 15.8 18 Este 45 Sudeste 0 -- -- 24
2020-03-08 11:00:00 15.4 24 Este 54 Sudeste 0 -- -- 23
2020-03-08 10:00:00 14.9 27 Este 45 Este 0 -- -- 19
2020-03-08 09:00:00 14 20 Este 40 Este 0 -- -- 22
2020-03-08 08:00:00 12.3 22 Este 44 Este 0 -- -- 22
2020-03-08 07:00:00 12.2 19 Este 38 Este 0 -- -- 21
2020-03-08 06:00:00 12.4 19 Este 39 Este 0 -- -- 20
2020-03-08 05:00:00 12.6 23 Este 40 Sudeste 0 -- -- 18
2020-03-08 04:00:00 12.6 22 Este 34 Este 0 -- -- 20
2020-03-08 03:00:00 12.2 14 Este 26 Nordeste 0 -- -- 24
2020-03-08 02:00:00 12.9 18 Este 31 Este 0 -- -- 18
2020-03-08 01:00:00 13.7 21 Este 32 Este 0 -- -- 16
2020-03-08 00:00:00 13.5 25 Este 36 Este 0 -- -- 19